Weather History for Memphis, TN

Change the Weather History Date:

Sunday, November 4, 2012

  Actual Average Record
Temperature  
Mean Temperature 53 °F 58 °F  
Max Temperature 62 °F 68 °F 82 °F (1987)
Min Temperature 44 °F 48 °F 22 °F (1991)
Degree Days  
Heating Degree Days 12 8  
Month to date heating degree days 22 31  
Since 1 July heating degree days 184 162  
Cooling Degree Days 0 1  
Month to date cooling degree days 3 4  
Year to date cooling degree days 2612 2247  
Growing Degree Days 4 (Base 50)    
Moisture  
Dew Point 38 °F    
Average Humidity 61    
Maximum Humidity 83    
Minimum Humidity 39    
Precipitation  
Precipitation 0.00 in 0.15 in 2.54 in (1875)
Month to date precipitation 0.52 0.60  
Year to date precipitation 30.79 43.05  
Snow  
Snow 0.00 in 0.00 in 0.20 in (1936)
Month to date snowfall 0.0 0.0  
Since 1 July snowfall 0.0 0.0  
Since 1 September snowfall 0.0 0.0  
Snow Depth 0.00 in    
Sea Level Pressure  
Sea Level Pressure 30.15 in    
Wind  
Wind Speed 7 mph (NNE)    
Max Wind Speed 14 mph    
Max Gust Speed 17 mph    
Visibility 10 miles    
Events      
T = Trace of Precipitation, MM = Missing Value Source: NWS Daily Summary

Daily Weather History Graph

Daily Weather History Graph

Search for Another Location

Airport:

Trip Planner

Search our weather history database for the weather conditions in past years. The results will help you decide how hot, cold, wet, or windy it might be!

Date:

Astronomy

Nov. 04, 2012 Rise Set
Actual Time 6:24 AM CST 5:02 PM CST
Civil Twilight 5:57 AM CST 5:28 PM CST
Nautical Twilight 5:27 AM CST 5:58 PM CST
Astronomical Twilight 4:58 AM CST 6:28 PM CST
Moon 9:42 PM CST (11/4) 11:05 AM CST (11/4)
Length of Visible Light 11h 30m
Length of Day
10h 37m
Waning Gibbous, 72% of the Moon is Illuminated
Nov 4
Waning Gibbous
Nov 6
Last Quarter
Nov 13
New
Nov 20
First Quarter
Nov 28
Full

Hourly Weather History & Observations

Time (CST) Temp. Windchill Dew Point Humidity Pressure Visibility Wind Dir Wind Speed Gust Speed Precip Events Conditions
12:54 AM 53.1 °F - 42.1 °F 66% 30.11 in 10.0 mi North 10.4 mph - N/A   Overcast
1:54 AM 51.1 °F - 39.9 °F 66% 30.11 in 10.0 mi North 9.2 mph - N/A   Overcast
1:54 AM 50.0 °F - 39.9 °F 68% 30.10 in 10.0 mi North 8.1 mph - N/A   Overcast
2:54 AM 48.9 °F - 39.0 °F 69% 30.10 in 10.0 mi North 9.2 mph - N/A   Overcast
3:54 AM 48.0 °F - 39.0 °F 71% 30.12 in 10.0 mi North 10.4 mph - N/A   Overcast
4:54 AM 46.9 °F - 39.0 °F 74% 30.14 in 10.0 mi NNE 13.8 mph - N/A   Overcast
5:54 AM 46.0 °F 40.6 °F 39.0 °F 76% 30.14 in 10.0 mi NNE 11.5 mph - N/A   Scattered Clouds
6:54 AM 45.0 °F 41.2 °F 39.0 °F 80% 30.17 in 9.0 mi NNE 6.9 mph - N/A   Mostly Cloudy
7:54 AM 46.0 °F 41.9 °F 39.0 °F 76% 30.20 in 10.0 mi North 8.1 mph - N/A   Mostly Cloudy
8:54 AM 48.9 °F - 39.9 °F 71% 30.19 in 9.0 mi NNE 6.9 mph - N/A   Partly Cloudy
9:54 AM 52.0 °F - 37.9 °F 59% 30.20 in 10.0 mi NE 9.2 mph - N/A   Scattered Clouds
10:54 AM 55.9 °F - 37.9 °F 51% 30.19 in 10.0 mi NNE 8.1 mph - N/A   Scattered Clouds
11:54 AM 57.0 °F - 37.9 °F 49% 30.18 in 10.0 mi Calm Calm - N/A   Scattered Clouds
12:54 PM 59.0 °F - 37.0 °F 44% 30.16 in 10.0 mi NNE 6.9 mph - N/A   Mostly Cloudy
1:54 PM 61.0 °F - 37.0 °F 41% 30.14 in 10.0 mi NNW 4.6 mph - N/A   Mostly Cloudy
2:54 PM 61.0 °F - 36.0 °F 39% 30.14 in 10.0 mi North 6.9 mph - N/A   Partly Cloudy
3:54 PM 59.0 °F - 36.0 °F 42% 30.14 in 10.0 mi North 6.9 mph - N/A   Partly Cloudy
4:54 PM 57.0 °F - 35.1 °F 44% 30.13 in 10.0 mi NNE 6.9 mph - N/A   Partly Cloudy
5:54 PM 55.0 °F - 37.0 °F 51% 30.14 in 10.0 mi NE 5.8 mph - N/A   Partly Cloudy
6:54 PM 51.1 °F - 37.9 °F 61% 30.15 in 10.0 mi North 5.8 mph - N/A   Partly Cloudy
7:54 PM 50.0 °F - 37.0 °F 61% 30.15 in 10.0 mi NNE 5.8 mph - N/A   Clear
8:54 PM 48.9 °F - 36.0 °F 61% 30.16 in 10.0 mi NNE 4.6 mph - N/A   Clear
9:54 PM 48.9 °F - 37.0 °F 64% 30.15 in 10.0 mi Calm Calm - N/A   Clear
10:54 PM 46.9 °F - 37.9 °F 71% 30.14 in 10.0 mi NE 3.5 mph - N/A   Clear